Hourly Data Report for October 29, 2004

TORONTO CITY
ONTARIO

43°40'00.000" N
79°24'00.000" W
112.50 m
6158355
71508
XTO

Download Data

Hourly Data (October 2004)
Hourly Data Report for October 29, 2004
TIME
LST
Temp Definition
°C
Dew Point Definition
°C
Rel Hum Definition
%
Precip. Amount Definition
mm

Wind Dir Definition
10's deg

Wind Spd Definition
km/h
Visibility Definition
km
Stn Press Definition
kPa
Hmdx Definition


Wind Chill Definition


Weather Definition


00:00 9.0 6.6 85   LegendMM LegendMM LegendMM 100.61     LegendNANA
01:00 8.4 5.5 82   LegendMM LegendMM LegendMM 100.57     LegendNANA
02:00 8.6 5.1 79   LegendMM LegendMM LegendMM 100.52     LegendNANA
03:00 8.4 4.5 76   LegendMM LegendMM LegendMM 100.45     LegendNANA
04:00 8.7 5.5 80   LegendMM LegendMM LegendMM 100.41     LegendNANA
05:00 9.4 5.2 75   LegendMM LegendMM LegendMM 100.36     LegendNANA
06:00 9.9 5.2 73   LegendMM LegendMM LegendMM 100.31     LegendNANA
07:00 9.9 4.7 70   LegendMM LegendMM LegendMM 100.28     LegendNANA
08:00 9.8 7.9 88   LegendMM LegendMM LegendMM 100.24     LegendNANA
09:00 11.0 8.6 85   LegendMM LegendMM LegendMM 100.22     LegendNANA
10:00 11.4 8.9 85   LegendMM LegendMM LegendMM 100.15     LegendNANA
11:00 11.5 8.9 84   LegendMM LegendMM LegendMM 100.09     LegendNANA
12:00 11.2 8.4 83   LegendMM LegendMM LegendMM 100.04     LegendNANA
13:00 10.9 8.3 84   LegendMM LegendMM LegendMM 99.89     LegendNANA
14:00 11.1 8.6 85   LegendMM LegendMM LegendMM 99.81     LegendNANA
15:00 11.3 8.7 84   LegendMM LegendMM LegendMM 99.73     LegendNANA
16:00 11.2 9.3 88   LegendMM LegendMM LegendMM 99.69     LegendNANA
17:00 11.1 9.5 90   LegendMM LegendMM LegendMM 99.69     LegendNANA
18:00 10.7 9.9 95   LegendMM LegendMM LegendMM 99.65     LegendNANA
19:00 10.7 10.1 96   LegendMM LegendMM LegendMM 99.62     LegendNANA
20:00 10.7 10.4 98   LegendMM LegendMM LegendMM 99.56     LegendNANA
21:00 10.9 10.7 99   LegendMM LegendMM LegendMM 99.50     LegendNANA
22:00 11.0 10.9 99   LegendMM LegendMM LegendMM 99.43     LegendNANA
23:00 11.2 11.1 99   LegendMM LegendMM LegendMM 99.38     LegendNANA

Notes on Data Quality.

Legend

  • E = Estimated
  • M = Missing
  • NA = Not Available*
  • [empty] = Indicates an unobserved value
Date modified: